Theta_e
338 337 338 337 335 337 341 342 350 350 347 348 346 346 345 344 343 349 348 350 351 346 339 335 335 335 337 337 335 332 330 330 330 329 328 329 330 330 330 331 334 338 339
342 337 335 333 335 340 343 347 349 348 346 345 343 344 343 343 344 346 346 345 345 340 339 337 337 336 334 333 333 331 330 329 329 328 327 326 329 329 328 329 328 332 335
341 340 339 337 346 348 348 347 346 343 342 343 340 342 343 344 346 344 344 343 339 340 338 339 334 333 332 332 331 330 330 328 327 326 324 324 326 326 326 327 328 327 328
341 337 344 346 348 348 347 343 340 337 336 338 338 339 337 340 337 330 326 323 321 324 330 337 334 332 331 330 330 330 328 326 324 323 324 324 324 323 324 324 326 327 327
348 347 351 349 347 345 341 339 338 338 338 338 336 336 333 332 329 326 323 321 320 320 320 334 333 333 330 328 327 327 327 325 323 322 321 323 323 322 323 324 325 325 325
350 348 347 343 342 341 340 340 338 338 337 330 333 330 328 322 325 324 319 320 318 319 319 319 318 322 327 325 325 326 326 324 322 322 320 321 320 320 321 322 323 323 324
350 347 345 341 341 339 335 333 333 332 319 322 321 319 328 315 318 316 319 317 319 319 318 319 318 318 317 324 324 324 325 324 323 321 319 318 319 322 322 322 322 322 322
344 343 341 339 339 330 326 323 323 322 320 317 312 313 305 309 314 316 318 314 312 318 319 319 316 316 316 314 318 321 323 323 324 322 319 318 318 318 320 320 320 321 321
339 337 332 330 327 326 321 320 321 316 315 315 314 308 304 303 307 312 313 312 311 315 315 314 316 316 314 313 315 317 322 322 324 323 320 318 318 318 319 320 319 319 319
331 330 329 325 322 321 319 320 321 316 315 309 311 315 314 311 304 304 309 311 311 312 313 312 314 315 314 312 316 319 321 321 323 320 319 319 319 319 320 320 320 320 319
326 327 325 322 321 320 319 317 317 315 316 312 310 310 310 309 309 305 302 305 308 309 310 311 313 312 312 311 311 317 323 321 318 317 317 317 317 318 319 319 319 319 319
322 322 322 320 319 318 318 317 317 317 315 315 315 312 309 307 306 305 303 303 303 307 310 312 312 311 312 312 318 323 321 320 318 317 316 316 316 317 318 318 319 319 320
318 316 318 316 317 317 318 317 317 316 316 315 314 314 311 310 310 307 305 303 303 306 309 311 311 312 315 312 314 322 320 319 317 317 317 317 316 316 317 318 318 319 320
317 317 317 317 317 319 317 317 316 317 316 315 314 313 312 313 311 308 307 305 302 303 305 305 313 313 313 313 318 321 313 318 317 316 316 317 317 316 315 316 316 316 317
319 317 316 315 316 317 317 317 316 316 316 314 314 314 313 314 314 312 311 309 305 300 302 307 306 312 312 314 317 313 312 317 318 316 316 316 316 316 313 314 314 314 315
315 314 314 314 315 317 317 316 316 315 314 314 315 314 314 313 313 311 310 310 308 305 300 306 311 310 310 313 314 311 312 316 315 315 316 315 315 314 314 313 313 313 314
314 314 314 315 315 315 315 315 315 316 314 314 314 313 312 309 307 307 306 307 307 306 302 306 308 309 308 309 309 310 312 310 311 314 317 315 313 313 313 312 312 312 312
313 314 315 316 316 316 314 315 314 314 313 313 313 311 309 311 305 304 303 302 304 305 304 302 304 306 306 307 308 307 310 311 310 315 315 314 313 312 311 310 310 310 309
313 315 315 315 315 315 315 314 315 314 314 313 313 311 306 304 301 299 299 300 303 306 305 303 302 303 304 310 308 309 310 311 313 317 314 312 312 313 312 311 310 309 307
314 313 313 312 310 309 310 313 315 314 314 312 310 308 305 302 299 298 298 298 301 301 304 302 302 306 308 310 310 308 308 311 310 312 312 311 311 312 312 311 310 310 307
314 314 309 307 306 305 305 305 311 313 312 309 307 307 305 304 304 302 299 298 299 298 301 301 304 306 306 307 307 309 307 309 310 308 306 307 308 308 309 311 309 308 306
313 310 307 305 302 303 300 302 305 309 311 308 303 303 302 300 299 301 304 307 307 300 300 300 300 305 305 308 309 307 306 307 304 310 305 304 308 306 307 310 307 305 304
312 309 306 303 299 297 297 298 301 305 309 306 302 300 301 299 296 295 300 305 306 307 307 301 302 304 306 309 309 306 305 306 305 308 306 303 307 305 307 308 306 305 304
311 308 304 300 295 295 296 296 299 305 308 303 299 297 295 294 293 294 297 300 301 302 303 304 305 306 308 308 306 306 304 303 304 307 308 301 307 304 305 307 306 304 303
312 311 306 300 294 291 295 295 300 308 298 295 296 296 295 293 294 295 294 295 296 297 302 303 303 302 301 301 302 306 304 303 302 305 308 305 306 304 304 305 307 305 303
311 312 306 299 298 291 295 296 297 301 299 295 294 295 297 294 294 293 291 291 292 293 294 299 303 302 303 304 307 310 305 302 303 302 307 305 304 304 301 305 306 306 305
Wind_Speed
3 2 2 3 3 1 3 3 5 5 5 5 5 6 6 6 6 4 2 9 13 16 17 16 17 16 17 18 19 20 20 20 22 24 24 25 23 22 23 23 23 21 19
3 2 1 2 3 2 4 5 4 4 4 5 6 6 7 6 6 7 3 5 15 13 14 16 17 19 19 19 16 18 19 20 22 23 24 24 24 22 23 23 22 23 20
4 3 2 2 2 5 6 5 5 4 5 4 5 5 5 6 5 7 4 4 5 14 13 17 18 17 18 20 17 19 21 20 22 24 26 25 23 22 22 23 23 21 21
5 2 2 3 4 4 4 4 4 4 4 4 4 4 3 4 7 8 6 4 2 3 7 16 15 16 17 19 18 19 19 22 25 25 26 25 24 24 23 23 22 21 21
6 5 3 4 5 5 4 4 3 2 2 3 4 4 5 4 6 7 5 4 6 4 4 12 13 14 17 17 17 16 19 23 26 27 27 26 25 24 23 24 23 23 21
6 6 5 6 6 5 4 4 3 3 2 3 3 5 4 5 6 4 3 2 4 6 6 6 5 6 14 16 17 16 20 24 25 25 28 25 25 24 23 23 23 23 21
7 7 5 6 5 5 5 5 3 4 5 5 4 4 3 6 6 4 4 4 7 3 7 4 4 3 4 14 17 17 21 24 23 26 25 26 24 25 24 24 24 23 22
8 8 7 5 6 5 6 6 5 3 2 5 1 2 4 6 5 6 5 9 8 5 5 4 5 5 5 4 10 16 21 24 23 24 25 27 26 25 25 24 25 25 23
8 9 8 8 7 5 5 5 5 6 3 4 7 4 4 0 2 4 6 6 7 5 3 4 6 6 6 4 6 11 23 26 25 23 24 24 25 26 26 25 25 24 24
10 9 8 8 6 5 6 5 5 4 4 4 3 4 5 3 3 4 4 5 5 5 4 5 5 5 5 4 10 16 22 24 24 24 22 23 24 26 27 27 26 26 23
7 8 7 7 6 5 6 7 6 7 4 3 2 3 4 4 5 4 3 5 4 4 3 4 4 4 5 4 5 11 21 22 24 21 22 22 23 26 28 29 26 25 24
4 6 7 6 7 6 6 5 6 7 5 5 4 4 4 3 3 4 2 3 3 5 4 4 5 4 4 5 13 18 23 18 22 19 21 22 23 23 26 28 26 24 24
4 5 6 6 4 5 6 5 5 6 5 4 4 3 4 4 3 2 2 3 1 3 4 3 5 4 6 5 9 19 22 20 21 20 21 22 23 22 22 25 27 26 26
5 6 6 6 6 7 6 5 3 3 5 5 8 6 4 4 2 2 1 1 3 1 2 3 6 5 5 5 15 21 11 21 21 21 22 24 22 18 19 21 24 26 26
6 7 7 7 6 6 7 6 4 5 5 5 6 6 4 4 5 4 4 2 2 3 4 5 3 5 5 7 16 13 11 22 21 22 23 21 23 14 16 19 23 26 27
7 7 7 6 6 6 6 6 4 5 6 4 4 7 6 4 5 4 4 4 3 2 1 2 5 6 6 8 14 11 12 17 19 21 23 22 23 17 18 20 23 26 28
8 7 7 6 6 6 6 6 6 6 7 7 6 7 6 6 4 5 4 3 4 3 3 4 2 6 8 8 10 8 11 11 10 19 22 20 16 17 17 20 23 24 27
7 7 6 6 6 6 7 7 7 7 7 7 6 7 6 5 6 6 4 6 4 4 2 4 3 7 6 7 7 9 10 10 10 15 20 20 13 14 16 21 23 24 26
7 7 7 7 5 6 6 7 7 7 6 6 7 7 6 7 6 4 4 5 4 5 3 2 3 2 3 8 9 7 11 13 10 16 19 20 17 12 12 20 24 25 28
8 7 7 10 8 8 7 6 6 7 7 7 7 7 6 6 4 5 5 5 4 4 3 2 3 6 4 8 7 9 12 11 9 7 17 14 15 16 13 17 26 28 29
7 10 10 9 7 8 6 6 6 7 7 7 7 6 6 10 13 8 3 5 5 2 2 2 5 4 6 7 7 8 9 10 9 8 12 8 9 7 10 12 22 27 29
8 11 9 8 8 5 7 9 7 4 7 7 6 6 4 10 11 15 14 12 4 3 3 2 3 6 8 6 6 7 7 9 7 7 11 8 9 9 8 7 22 25 27
11 11 9 8 6 5 9 8 7 3 5 7 6 6 6 6 8 7 11 10 9 3 2 1 4 5 6 6 5 7 8 8 7 4 11 7 10 10 8 8 18 24 26
11 9 8 7 5 5 7 7 5 3 8 8 7 6 5 6 7 7 7 7 7 6 6 4 3 8 5 7 1 2 4 6 5 2 10 3 8 10 6 7 15 22 22
8 10 8 7 6 5 6 5 4 8 8 7 6 5 5 5 7 8 7 8 9 10 10 6 7 9 11 8 3 3 5 6 7 3 9 5 7 10 4 6 9 19 17
7 9 9 6 7 6 6 11 9 5 6 4 2 2 5 4 8 7 6 6 7 6 7 8 7 8 9 9 6 1 1 2 4 3 7 6 5 7 5 4 8 9 10
Wind_Direction
185 186 177 152 216 152 193 48 33 21 10 27 14 13 0 352 13 111 101 70 88 72 56 41 40 43 42 35 31 21 15 11 10 4 359 351 345 344 342 338 336 335 334
185 173 103 7 20 74 48 35 29 12 18 22 356 357 336 334 9 106 89 84 86 81 58 41 49 47 37 25 27 15 12 17 9 358 353 347 342 345 341 335 332 326 328
127 89 53 61 93 53 56 44 34 15 12 5 345 336 339 12 61 75 85 73 104 78 63 52 54 44 32 20 25 9 23 9 2 349 344 342 341 342 338 335 331 328 322
129 109 58 108 72 52 66 59 34 9 351 336 326 316 3 30 80 85 94 97 107 72 51 58 48 33 33 21 23 18 11 4 355 351 351 345 341 337 337 331 326 326 327
139 85 61 74 57 65 56 48 14 19 354 336 330 335 17 57 80 87 76 63 64 85 65 67 47 36 34 22 12 17 9 358 356 355 348 346 340 336 334 331 332 328 325
103 94 87 79 70 76 50 36 17 338 347 330 343 14 62 51 74 103 79 47 70 69 63 66 42 45 34 27 17 24 7 360 357 355 356 349 338 331 334 332 332 325 325
72 73 81 66 62 73 66 38 350 32 12 351 43 4 47 49 53 54 29 27 30 48 61 69 64 63 26 32 21 19 5 357 353 359 358 355 345 344 338 334 331 329 324
68 72 81 73 80 75 56 45 29 19 32 22 87 82 19 346 1 24 33 30 12 25 49 42 59 56 46 23 23 11 358 356 348 351 352 350 349 348 340 337 333 328 324
74 72 66 78 70 75 71 55 29 41 63 1 38 132 59 21 342 330 25 23 18 32 6 3 44 56 46 17 19 355 354 349 343 347 348 344 346 342 338 336 330 327 322
69 67 71 79 75 73 65 49 35 39 70 40 4 17 72 132 101 354 351 358 6 25 12 14 42 46 29 357 9 2 352 353 352 348 343 339 342 340 337 333 329 327 321
71 70 68 81 79 70 73 64 50 51 48 65 54 41 45 40 55 89 341 330 341 342 360 15 39 26 355 349 344 354 354 355 354 354 345 342 340 341 341 343 337 333 332
84 78 80 75 78 80 81 76 62 63 57 53 47 40 83 88 32 51 49 299 329 311 340 14 22 354 346 352 353 354 0 4 354 347 341 339 335 335 339 343 341 338 334
94 96 95 88 93 94 90 89 82 69 57 58 38 42 55 63 102 110 133 288 286 299 337 343 356 341 358 343 358 2 1 352 350 340 335 330 325 326 340 346 345 339 335
120 113 102 102 99 98 94 99 90 95 78 67 50 48 55 30 36 60 349 40 342 318 296 301 339 358 345 353 1 7 349 348 347 338 329 328 323 317 333 342 345 340 337
118 103 103 102 94 109 116 99 85 81 89 69 61 55 47 25 29 26 21 36 108 356 317 336 325 349 2 19 8 358 345 344 338 335 329 330 338 317 327 338 342 341 337
106 108 110 109 97 112 133 105 93 79 87 67 71 60 41 25 30 16 8 4 34 98 352 295 334 10 357 6 358 355 337 339 333 333 328 349 347 346 349 348 340 341 340
121 126 130 126 131 117 107 107 107 102 81 69 71 71 64 49 28 7 3 3 13 32 9 307 340 352 3 343 342 340 337 332 333 329 345 354 5 16 7 348 346 346 348
133 142 141 137 129 113 105 106 93 90 85 71 80 79 61 53 36 11 355 5 10 358 24 341 333 350 343 328 323 328 332 331 336 333 354 354 2 24 8 359 351 350 345
125 122 128 129 126 89 96 109 111 108 100 75 56 81 60 52 26 354 354 8 3 352 359 34 306 294 282 334 339 335 344 335 337 347 351 352 1 356 0 1 356 352 348
120 125 91 85 81 69 56 38 86 94 81 71 65 82 79 61 21 355 12 16 351 346 334 345 313 358 329 344 333 347 350 344 328 352 350 346 358 352 350 360 359 358 354
120 98 90 83 77 67 50 39 43 84 87 73 57 93 68 43 19 18 2 334 325 334 309 341 333 337 334 338 345 343 349 339 345 15 345 335 353 353 1 358 1 2 360
105 98 80 78 70 70 45 56 61 64 96 91 67 50 82 34 3 359 358 353 7 147 353 359 319 332 319 324 333 344 334 347 355 15 349 332 357 352 356 360 359 4 4
108 100 98 89 78 61 28 29 42 70 105 105 82 57 43 27 9 355 352 350 6 42 239 266 284 311 308 320 325 331 340 343 335 333 353 337 355 352 347 353 2 3 6
112 109 104 97 93 56 21 6 359 71 80 79 80 72 65 21 8 4 357 356 357 343 338 327 269 295 282 290 341 260 280 295 302 327 8 312 344 341 331 353 7 4 3
104 116 110 110 94 56 357 360 64 85 93 89 84 88 77 31 345 1 13 3 351 352 343 327 310 324 333 326 327 341 352 358 353 355 7 330 338 335 327 348 5 1 3
123 108 111 111 108 75 29 54 65 91 106 107 83 44 63 29 353 4 14 357 6 330 339 344 350 351 347 338 12 45 324 1 345 330 355 343 333 345 330 326 0 360 358